Rome, NY

5:13 PM EST on November 11, 2019 (GMT -0500)
Griffiss

Weather History for KRME - September, 2019

Change the Weather History Date:

Friday, September 27, 2019

  Actual Average Record
Temperature  
Mean Temperature 58 °F -  
Max Temperature 72 °F 64 °F 89 °F (2017)
Min Temperature 44 °F 45 °F 33 °F (1989)
Degree Days  
Heating Degree Days 8    
Growing Degree Days 8 (Base 50)    
Moisture  
Dew Point 48 °F    
Average Humidity 87    
Maximum Humidity 100    
Minimum Humidity 45    
Precipitation  
Precipitation 0.00 in - - ()
Sea Level Pressure  
Sea Level Pressure 30.04 in    
Wind  
Wind Speed 2 mph (ESE)    
Max Wind Speed 10 mph    
Max Gust Speed -    
Visibility 6 miles    
Events      
Averages and records for this station are not official NWS values.
T = Trace of Precipitation, MM = Missing Value Source: NWS Daily Summary

Daily Weather History Graph

Daily Weather History Graph

Search for Another Location

Airport or City:

Astronomy

Sep. 27, 2019 Rise Set
Actual Time 6:54 AM EDT 6:50 PM EDT
Civil Twilight 6:25 AM EDT 7:18 PM EDT
Nautical Twilight 5:52 AM EDT 7:51 PM EDT
Astronomical Twilight 5:18 AM EDT 8:25 PM EDT
Moon 5:07 AM EDT (9/27) 6:43 PM EDT (9/27)
Length of Visible Light 12h 52m
Length of Day
11h 56m
Waning Crescent, 2% of the Moon is Illuminated
Sep 27
Waning Crescent
Sep 28
New
Oct 5
First Quarter
Oct 13
Full
Oct 21
Last Quarter

Hourly Weather History & Observations

Time (EDT) Temp. Windchill Dew Point Humidity Pressure Visibility Wind Dir Wind Speed Gust Speed Precip Events Conditions
12:07 AM 48.9 °F - 48.9 °F 100% 29.98 in 1.8 mi ENE 3.5 mph - N/A   Scattered Clouds
12:23 AM 48.9 °F - 48.9 °F 100% 29.98 in 3.0 mi ENE 3.5 mph - N/A   Partly Cloudy
12:53 AM 48.9 °F - 48.9 °F 100% 30.00 in 5.0 mi Calm Calm - N/A   Partly Cloudy
1:04 AM 48.9 °F - 48.9 °F 100% 30.01 in 1.2 mi Calm Calm - N/A   Scattered Clouds
1:15 AM 48.9 °F - 48.9 °F 100% 30.01 in 4.0 mi Calm Calm - N/A   Partly Cloudy
1:53 AM 46.9 °F - 46.9 °F 100% 30.02 in 3.0 mi Calm Calm - N/A   Clear
1:58 AM 46.9 °F - 46.9 °F 100% 30.02 in 1.8 mi Calm Calm - N/A   Clear
2:06 AM 46.9 °F - 46.9 °F 100% 30.02 in 3.0 mi Calm Calm - N/A   Clear
2:26 AM 46.9 °F - 46.9 °F 100% 30.02 in 1.8 mi ESE 3.5 mph - N/A   Partly Cloudy
2:30 AM 46.9 °F - 46.9 °F 100% 30.02 in 0.8 mi ESE 3.5 mph - N/A   Mist
2:42 AM 46.9 °F - 46.9 °F 100% 30.02 in 1.2 mi Calm Calm - N/A   Scattered Clouds
2:46 AM 46.0 °F - 46.0 °F 100% 30.03 in 4.0 mi Calm Calm - N/A   Scattered Clouds
2:51 AM 46.4 °F - 46.4 °F 100% 30.02 in 1.8 mi Calm Calm - N/A   Mostly Cloudy
2:53 AM 46.0 °F - 46.0 °F 100% 30.02 in 1.0 mi Calm Calm - N/A   Mist
3:00 AM 46.0 °F - 46.0 °F 100% 30.03 in 0.8 mi Calm Calm - N/A   Mist
3:22 AM 46.0 °F - 46.0 °F 100% 30.03 in 2.5 mi Calm Calm - N/A   Mostly Cloudy
3:25 AM 46.0 °F - 46.0 °F 100% 30.03 in 9.0 mi Calm Calm - N/A   Scattered Clouds
3:41 AM 45.0 °F 43.5 °F 45.0 °F 100% 30.03 in 1.8 mi SE 3.5 mph - N/A   Partly Cloudy
3:50 AM 44.6 °F 43.1 °F 44.6 °F 100% 30.04 in 4.0 mi SE 3.5 mph - N/A   Clear
3:53 AM 44.1 °F 42.5 °F 44.1 °F 100% 30.03 in 9.0 mi ESE 3.5 mph - N/A   Clear
4:53 AM 44.1 °F - 44.1 °F 100% 30.04 in 7.0 mi Calm Calm - N/A   Clear
5:29 AM 44.1 °F 42.5 °F 44.1 °F 100% 30.07 in 1.8 mi SE 3.5 mph - N/A   Clear
5:34 AM 44.1 °F - 44.1 °F 100% 30.07 in 1.0 mi Calm Calm - N/A   Mist
5:40 AM 45.0 °F 43.5 °F 45.0 °F 100% 30.07 in 2.0 mi SE 3.5 mph - N/A   Partly Cloudy
5:53 AM 44.1 °F - 44.1 °F 100% 30.07 in 3.0 mi Calm Calm - N/A   Scattered Clouds
6:53 AM 44.1 °F - 44.1 °F 100% 30.09 in 5.0 mi Calm Calm - N/A   Partly Cloudy
7:53 AM 46.9 °F - 46.9 °F 100% 30.11 in 10.0 mi Calm Calm - N/A   Clear
8:53 AM 52.0 °F - 51.1 °F 97% 30.11 in 10.0 mi East 3.5 mph - N/A   Clear
9:53 AM 55.9 °F - 53.1 °F 90% 30.13 in 10.0 mi SSE 4.6 mph - N/A   Clear
10:53 AM 60.1 °F - 53.1 °F 78% 30.14 in 10.0 mi Calm Calm - N/A   Clear
11:53 AM 64.0 °F - 54.0 °F 70% 30.13 in 10.0 mi SSW 3.5 mph - N/A   Clear
12:53 PM 66.9 °F - 52.0 °F 59% 30.11 in 10.0 mi Variable 4.6 mph - N/A   Clear
1:53 PM 69.1 °F - 50.0 °F 51% 30.08 in 10.0 mi West 3.5 mph - N/A   Partly Cloudy
2:53 PM 70.0 °F - 48.9 °F 47% 30.06 in 10.0 mi Variable 5.8 mph - N/A   Clear
3:53 PM 71.1 °F - 48.9 °F 45% 30.04 in 10.0 mi Calm Calm - N/A   Clear
4:53 PM 71.1 °F - 50.0 °F 47% 30.04 in 10.0 mi Calm Calm - N/A   Clear
5:53 PM 69.1 °F - 51.1 °F 53% 30.02 in 10.0 mi SE 5.8 mph - N/A   Clear
6:53 PM 64.0 °F - 52.0 °F 65% 30.02 in 10.0 mi East 6.9 mph - N/A   Clear
7:53 PM 63.0 °F - 51.1 °F 65% 30.03 in 10.0 mi East 8.1 mph - N/A   Clear
8:53 PM 60.1 °F - 51.1 °F 72% 30.03 in 10.0 mi ESE 5.8 mph - N/A   Clear
9:53 PM 57.9 °F - 52.0 °F 81% 30.04 in 10.0 mi Calm Calm - N/A   Clear
10:53 PM 61.0 °F - 51.1 °F 70% 30.03 in 10.0 mi East 10.4 mph - N/A   Clear
11:53 PM 61.0 °F - 51.1 °F 70% 30.01 in 10.0 mi East 9.2 mph - N/A   Clear